カタログに戻る

STARLINK-5162

運用中通信VLEO
NORAD 54184·PAYLOAD·🇺🇸 United States

打ち上げ Oct 28, 2022 から Vandenberg Space Force Base

Loading…

次のパス (今後24時間)

TLE

最新Source: CelesTrak SupGP

元期: Sep 15, 2026, 02:12 UTC

1 54184C 22141AD  26258.09215278 -.00032462  00000+0 -10438-2 0  2583
2 54184  53.1566 221.5310 0001337  91.4974  56.0184 15.31719808    10

AllMySatでSTARLINK-5162をリアルタイム追跡

Download on the App Store